Year,Month,Day,Hour,Minute,Value (Times are PST for windgust in km/hr)
2018,01,21,00,00,35.40
2018,01,21,00,01,38.60
2018,01,21,00,02,49.90
2018,01,21,00,03,20.90
2018,01,21,00,04,33.80
2018,01,21,00,05,27.40
2018,01,21,00,06,20.90
2018,01,21,00,07,33.80
2018,01,21,00,08,38.60
2018,01,21,00,09,48.30
2018,01,21,00,10,33.80
2018,01,21,00,11,30.60
2018,01,21,00,12,29.00
2018,01,21,00,13,27.40
2018,01,21,00,14,41.80
2018,01,21,00,15,41.80
2018,01,21,00,16,30.60
2018,01,21,00,17,30.60
2018,01,21,00,18,24.20
2018,01,21,00,19,24.20
2018,01,21,00,20,29.00
2018,01,21,00,21,32.20
2018,01,21,00,22,22.50
2018,01,21,00,23,38.60
2018,01,21,00,24,38.60
2018,01,21,00,25,25.70
2018,01,21,00,26,33.80
2018,01,21,00,27,29.00
2018,01,21,00,28,24.20
2018,01,21,00,29,35.40
2018,01,21,00,30,40.20
2018,01,21,00,31,38.60
2018,01,21,00,32,43.50
2018,01,21,00,33,37.00
2018,01,21,00,34,33.80
2018,01,21,00,35,30.60
2018,01,21,00,36,27.40
2018,01,21,00,37,33.80
2018,01,21,00,38,35.40
2018,01,21,00,39,32.20
2018,01,21,00,40,35.40
2018,01,21,00,41,33.80
2018,01,21,00,42,32.20
2018,01,21,00,43,41.80
2018,01,21,00,44,41.80
2018,01,21,00,45,33.80
2018,01,21,00,46,29.00
2018,01,21,00,47,43.50
2018,01,21,00,48,33.80
2018,01,21,00,49,33.80
2018,01,21,00,50,22.50
2018,01,21,00,51,35.40
2018,01,21,00,52,22.50
2018,01,21,00,53,32.20
2018,01,21,00,54,27.40
2018,01,21,00,55,29.00
2018,01,21,00,56,33.80
2018,01,21,00,57,35.40
2018,01,21,00,58,33.80
2018,01,21,00,59,33.80
2018,01,21,01,00,30.60
2018,01,21,01,01,32.20
2018,01,21,01,02,22.50
2018,01,21,01,03,19.30
2018,01,21,01,04,16.10
2018,01,21,01,05,24.20
2018,01,21,01,06,25.70
2018,01,21,01,07,35.40
2018,01,21,01,08,40.20
2018,01,21,01,09,35.40
2018,01,21,01,10,29.00
2018,01,21,01,11,41.80
2018,01,21,01,12,40.20
2018,01,21,01,13,40.20
2018,01,21,01,14,43.50
2018,01,21,01,15,43.50
2018,01,21,01,16,41.80
2018,01,21,01,17,35.40
2018,01,21,01,18,32.20
2018,01,21,01,19,27.40
2018,01,21,01,20,30.60
2018,01,21,01,21,33.80
2018,01,21,01,22,35.40
2018,01,21,01,23,32.20
2018,01,21,01,24,29.00
2018,01,21,01,25,46.70
2018,01,21,01,26,38.60
2018,01,21,01,27,24.20
2018,01,21,01,28,30.60
2018,01,21,01,29,25.70
2018,01,21,01,30,17.70
2018,01,21,01,31,22.50
2018,01,21,01,32,37.00
2018,01,21,01,33,29.00
2018,01,21,01,34,29.00
2018,01,21,01,35,19.30
2018,01,21,01,36,33.80
2018,01,21,01,37,25.70
2018,01,21,01,38,25.70
2018,01,21,01,39,32.20
2018,01,21,01,40,20.90
2018,01,21,01,41,45.10
2018,01,21,01,42,32.20
2018,01,21,01,43,29.00
2018,01,21,01,44,40.20
2018,01,21,01,45,33.80
2018,01,21,01,46,38.60
2018,01,21,01,47,30.60
2018,01,21,01,48,20.90
2018,01,21,01,49,24.20
2018,01,21,01,50,32.20
2018,01,21,01,51,33.80
2018,01,21,01,52,29.00
2018,01,21,01,53,30.60
2018,01,21,01,54,30.60
2018,01,21,01,55,38.60
2018,01,21,01,56,35.40
2018,01,21,01,57,22.50
2018,01,21,01,58,25.70
2018,01,21,01,59,29.00
2018,01,21,02,00,27.40
2018,01,21,02,01,32.20
2018,01,21,02,02,27.40
2018,01,21,02,03,30.60
2018,01,21,02,04,35.40
2018,01,21,02,05,41.80
2018,01,21,02,06,29.00
2018,01,21,02,07,33.80
2018,01,21,02,08,35.40
2018,01,21,02,09,41.80
2018,01,21,02,10,27.40
2018,01,21,02,11,22.50
2018,01,21,02,12,19.30
2018,01,21,02,13,33.80
2018,01,21,02,14,45.10
2018,01,21,02,15,46.70
2018,01,21,02,16,32.20
2018,01,21,02,17,35.40
2018,01,21,02,18,45.10
2018,01,21,02,19,33.80
2018,01,21,02,20,46.70
2018,01,21,02,21,38.60
2018,01,21,02,22,25.70
2018,01,21,02,23,35.40
2018,01,21,02,24,24.20
2018,01,21,02,25,33.80
2018,01,21,02,26,40.20
2018,01,21,02,27,30.60
2018,01,21,02,28,43.50
2018,01,21,02,29,45.10
2018,01,21,02,30,33.80
2018,01,21,02,31,46.70
2018,01,21,02,32,54.70
2018,01,21,02,33,37.00
2018,01,21,02,34,35.40
2018,01,21,02,35,43.50
2018,01,21,02,36,25.70
2018,01,21,02,37,29.00
2018,01,21,02,38,22.50
2018,01,21,02,39,37.00
2018,01,21,02,40,41.80
2018,01,21,02,41,41.80
2018,01,21,02,42,33.80
2018,01,21,02,43,22.50
2018,01,21,02,44,38.60
2018,01,21,02,45,24.20
2018,01,21,02,46,29.00
2018,01,21,02,47,29.00
2018,01,21,02,48,30.60
2018,01,21,02,49,27.40
2018,01,21,02,50,38.60
2018,01,21,02,51,45.10
2018,01,21,02,52,43.50
2018,01,21,02,53,35.40
2018,01,21,02,54,43.50
2018,01,21,02,55,32.20
2018,01,21,02,56,19.30
2018,01,21,02,57,32.20
2018,01,21,02,58,29.00
2018,01,21,02,59,32.20
2018,01,21,03,00,27.40
2018,01,21,03,01,33.80
2018,01,21,03,02,30.60
2018,01,21,03,03,19.30
2018,01,21,03,04,33.80
2018,01,21,03,05,30.60
2018,01,21,03,06,25.70
2018,01,21,03,07,45.10
2018,01,21,03,08,40.20
2018,01,21,03,09,53.10
2018,01,21,03,10,38.60
2018,01,21,03,11,38.60
2018,01,21,03,12,33.80
2018,01,21,03,13,32.20
2018,01,21,03,14,41.80
2018,01,21,03,15,48.30
2018,01,21,03,16,53.10
2018,01,21,03,17,32.20
2018,01,21,03,18,24.20
2018,01,21,03,19,25.70
2018,01,21,03,20,25.70
2018,01,21,03,21,32.20
2018,01,21,03,22,37.00
2018,01,21,03,23,38.60
2018,01,21,03,24,32.20
2018,01,21,03,25,38.60
2018,01,21,03,26,33.80
2018,01,21,03,27,27.40
2018,01,21,03,28,24.20
2018,01,21,03,29,20.90
2018,01,21,03,30,27.40
2018,01,21,03,31,35.40
2018,01,21,03,32,41.80
2018,01,21,03,33,57.90
2018,01,21,03,34,33.80
2018,01,21,03,35,41.80
2018,01,21,03,36,37.00
2018,01,21,03,37,38.60
2018,01,21,03,38,33.80
2018,01,21,03,39,38.60
2018,01,21,03,40,54.70
2018,01,21,03,41,48.30
2018,01,21,03,42,35.40
2018,01,21,03,43,48.30
2018,01,21,03,44,40.20
2018,01,21,03,45,35.40
2018,01,21,03,46,32.20
2018,01,21,03,47,35.40
2018,01,21,03,48,27.40
2018,01,21,03,49,30.60
2018,01,21,03,50,43.50
2018,01,21,03,51,37.00
2018,01,21,03,52,32.20
2018,01,21,03,53,48.30
2018,01,21,03,54,37.00
2018,01,21,03,55,35.40
2018,01,21,03,56,40.20
2018,01,21,03,57,48.30
2018,01,21,03,58,33.80
2018,01,21,03,59,41.80
2018,01,21,04,00,37.00
2018,01,21,04,01,40.20
2018,01,21,04,02,38.60
2018,01,21,04,03,46.70
2018,01,21,04,04,38.60
2018,01,21,04,05,38.60
2018,01,21,04,06,46.70
2018,01,21,04,07,38.60
2018,01,21,04,08,33.80
2018,01,21,04,09,40.20
2018,01,21,04,10,45.10
2018,01,21,04,11,40.20
2018,01,21,04,12,37.00
2018,01,21,04,13,25.70
2018,01,21,04,14,35.40
2018,01,21,04,15,30.60
2018,01,21,04,16,35.40
2018,01,21,04,17,32.20
2018,01,21,04,18,30.60
2018,01,21,04,19,35.40
2018,01,21,04,20,30.60
2018,01,21,04,21,45.10
2018,01,21,04,22,29.00
2018,01,21,04,23,29.00
2018,01,21,04,24,56.30
2018,01,21,04,25,33.80
2018,01,21,04,26,32.20
2018,01,21,04,27,24.20
2018,01,21,04,28,33.80
2018,01,21,04,29,41.80
2018,01,21,04,30,40.20
2018,01,21,04,31,41.80
2018,01,21,04,32,29.00
2018,01,21,04,33,29.00
2018,01,21,04,34,41.80
2018,01,21,04,35,45.10
2018,01,21,04,36,38.60
2018,01,21,04,37,38.60
2018,01,21,04,38,49.90
2018,01,21,04,39,33.80
2018,01,21,04,40,35.40
2018,01,21,04,41,33.80
2018,01,21,04,42,29.00
2018,01,21,04,43,41.80
2018,01,21,04,44,35.40
2018,01,21,04,45,25.70
2018,01,21,04,46,25.70
2018,01,21,04,47,27.40
2018,01,21,04,48,35.40
2018,01,21,04,49,19.30
2018,01,21,04,50,51.50
2018,01,21,04,51,49.90
2018,01,21,04,52,35.40
2018,01,21,04,53,30.60
2018,01,21,04,54,43.50
2018,01,21,04,55,46.70
2018,01,21,04,56,57.90
2018,01,21,04,57,45.10
2018,01,21,04,58,45.10
2018,01,21,04,59,32.20
2018,01,21,05,00,37.00
2018,01,21,05,01,32.20
2018,01,21,05,02,40.20
2018,01,21,05,03,35.40
2018,01,21,05,04,27.40
2018,01,21,05,05,30.60
2018,01,21,05,06,43.50
2018,01,21,05,07,33.80
2018,01,21,05,08,35.40
2018,01,21,05,09,29.00
2018,01,21,05,10,38.60
2018,01,21,05,11,38.60
2018,01,21,05,12,30.60
2018,01,21,05,13,25.70
2018,01,21,05,14,24.20
2018,01,21,05,15,27.40
2018,01,21,05,16,45.10
2018,01,21,05,17,40.20
2018,01,21,05,18,33.80
2018,01,21,05,19,32.20
2018,01,21,05,20,27.40
2018,01,21,05,21,32.20
2018,01,21,05,22,51.50
2018,01,21,05,23,48.30
2018,01,21,05,24,30.60
2018,01,21,05,25,27.40
2018,01,21,05,26,27.40
2018,01,21,05,27,29.00
2018,01,21,05,28,29.00
2018,01,21,05,29,53.10
2018,01,21,05,30,38.60
2018,01,21,05,31,49.90
2018,01,21,05,32,32.20
2018,01,21,05,33,38.60
2018,01,21,05,34,37.00
2018,01,21,05,35,45.10
2018,01,21,05,36,32.20
2018,01,21,05,37,29.00
2018,01,21,05,38,29.00
2018,01,21,05,39,43.50
2018,01,21,05,40,37.00
2018,01,21,05,41,30.60
2018,01,21,05,42,38.60
2018,01,21,05,43,37.00
2018,01,21,05,44,32.20
2018,01,21,05,45,48.30
2018,01,21,05,46,40.20
2018,01,21,05,47,41.80
2018,01,21,05,48,37.00
2018,01,21,05,49,25.70
2018,01,21,05,50,37.00
2018,01,21,05,51,43.50
2018,01,21,05,52,32.20
2018,01,21,05,53,29.00
2018,01,21,05,54,33.80
2018,01,21,05,55,37.00
2018,01,21,05,56,32.20
2018,01,21,05,57,48.30
2018,01,21,05,58,30.60
2018,01,21,05,59,25.70
2018,01,21,06,00,48.30
2018,01,21,06,01,49.90
2018,01,21,06,02,37.00
2018,01,21,06,03,35.40
2018,01,21,06,04,49.90
2018,01,21,06,05,40.20
2018,01,21,06,06,40.20
2018,01,21,06,07,30.60
2018,01,21,06,08,45.10
2018,01,21,06,09,35.40
2018,01,21,06,10,41.80
2018,01,21,06,11,30.60
2018,01,21,06,12,25.70
2018,01,21,06,13,41.80
2018,01,21,06,14,25.70
2018,01,21,06,15,30.60
2018,01,21,06,16,35.40
2018,01,21,06,17,48.30
2018,01,21,06,18,41.80
2018,01,21,06,19,56.30
2018,01,21,06,20,51.50
2018,01,21,06,21,51.50
2018,01,21,06,22,46.70
2018,01,21,06,23,46.70
2018,01,21,06,24,32.20
2018,01,21,06,25,29.00
2018,01,21,06,26,38.60
2018,01,21,06,27,37.00
2018,01,21,06,28,33.80
2018,01,21,06,29,43.50
2018,01,21,06,30,37.00
2018,01,21,06,31,37.00
2018,01,21,06,32,29.00
2018,01,21,06,33,25.70
2018,01,21,06,34,35.40
2018,01,21,06,35,27.40
2018,01,21,06,36,40.20
2018,01,21,06,37,35.40
2018,01,21,06,38,32.20
2018,01,21,06,39,27.40
2018,01,21,06,40,33.80
2018,01,21,06,41,40.20
2018,01,21,06,42,38.60
2018,01,21,06,43,40.20
2018,01,21,06,44,35.40
2018,01,21,06,45,40.20
2018,01,21,06,46,40.20
2018,01,21,06,47,38.60
2018,01,21,06,48,30.60
2018,01,21,06,49,48.30
2018,01,21,06,50,46.70
2018,01,21,06,51,41.80
2018,01,21,06,52,33.80
2018,01,21,06,53,33.80
2018,01,21,06,54,33.80
2018,01,21,06,55,32.20
2018,01,21,06,56,48.30
2018,01,21,06,57,43.50
2018,01,21,06,58,30.60
2018,01,21,06,59,38.60
2018,01,21,07,00,29.00
2018,01,21,07,01,30.60
2018,01,21,07,02,45.10
2018,01,21,07,03,43.50
2018,01,21,07,04,30.60
2018,01,21,07,05,41.80
2018,01,21,07,06,41.80
2018,01,21,07,07,38.60
2018,01,21,07,08,37.00
2018,01,21,07,09,29.00
2018,01,21,07,10,25.70
2018,01,21,07,11,37.00
2018,01,21,07,12,40.20
2018,01,21,07,13,32.20
2018,01,21,07,14,30.60
2018,01,21,07,15,22.50
2018,01,21,07,16,38.60
2018,01,21,07,17,38.60
2018,01,21,07,18,29.00
2018,01,21,07,19,46.70
2018,01,21,07,20,51.50
2018,01,21,07,21,64.40
2018,01,21,07,22,29.00
2018,01,21,07,23,35.40
2018,01,21,07,24,27.40
2018,01,21,07,25,56.30
2018,01,21,07,26,49.90
2018,01,21,07,27,41.80
2018,01,21,07,28,33.80
2018,01,21,07,29,27.40
2018,01,21,07,30,35.40
2018,01,21,07,31,35.40
2018,01,21,07,32,33.80
2018,01,21,07,33,35.40
2018,01,21,07,34,32.20
2018,01,21,07,35,48.30
2018,01,21,07,36,43.50
2018,01,21,07,37,33.80
2018,01,21,07,38,43.50
2018,01,21,07,39,40.20
2018,01,21,07,40,40.20
2018,01,21,07,41,40.20
2018,01,21,07,42,35.40
2018,01,21,07,43,32.20
2018,01,21,07,44,37.00
2018,01,21,07,45,30.60
2018,01,21,07,46,49.90
2018,01,21,07,47,54.70
2018,01,21,07,48,38.60
2018,01,21,07,49,35.40
2018,01,21,07,50,49.90
2018,01,21,07,51,35.40
2018,01,21,07,52,57.90
2018,01,21,07,53,51.50
2018,01,21,07,54,45.10
2018,01,21,07,55,40.20
2018,01,21,07,56,33.80
2018,01,21,07,57,40.20
2018,01,21,07,58,30.60
2018,01,21,07,59,37.00
2018,01,21,08,00,37.00
2018,01,21,08,01,38.60
2018,01,21,08,02,32.20
2018,01,21,08,03,29.00
2018,01,21,08,04,48.30
2018,01,21,08,05,38.60
2018,01,21,08,06,32.20
2018,01,21,08,07,40.20
2018,01,21,08,08,35.40
2018,01,21,08,09,41.80
2018,01,21,08,10,45.10
2018,01,21,08,11,38.60
2018,01,21,08,12,41.80
2018,01,21,08,13,38.60
2018,01,21,08,14,37.00
2018,01,21,08,15,30.60
2018,01,21,08,16,38.60
2018,01,21,08,17,32.20
2018,01,21,08,18,25.70
2018,01,21,08,19,38.60
2018,01,21,08,20,24.20
2018,01,21,08,21,45.10
2018,01,21,08,22,49.90
2018,01,21,08,23,37.00
2018,01,21,08,24,25.70
2018,01,21,08,25,27.40
2018,01,21,08,26,29.00
2018,01,21,08,27,35.40
2018,01,21,08,28,35.40
2018,01,21,08,29,35.40
2018,01,21,08,30,56.30
2018,01,21,08,31,35.40
2018,01,21,08,32,20.90
2018,01,21,08,33,27.40
2018,01,21,08,34,32.20
2018,01,21,08,35,49.90
2018,01,21,08,36,38.60
2018,01,21,08,37,41.80
2018,01,21,08,38,46.70
2018,01,21,08,39,41.80
2018,01,21,08,40,38.60
2018,01,21,08,41,27.40
2018,01,21,08,42,24.20
2018,01,21,08,43,32.20
2018,01,21,08,44,38.60
2018,01,21,08,45,51.50
2018,01,21,08,46,38.60
2018,01,21,08,47,41.80
2018,01,21,08,48,35.40
2018,01,21,08,49,37.00
2018,01,21,08,50,30.60
2018,01,21,08,51,32.20
2018,01,21,08,52,45.10
2018,01,21,08,53,43.50
2018,01,21,08,54,45.10
2018,01,21,08,55,43.50
2018,01,21,08,56,43.50
2018,01,21,08,57,30.60
2018,01,21,08,58,38.60
2018,01,21,08,59,30.60
2018,01,21,09,00,33.80
2018,01,21,09,01,24.20
2018,01,21,09,02,35.40
2018,01,21,09,03,25.70
2018,01,21,09,04,30.60
2018,01,21,09,05,35.40
2018,01,21,09,06,38.60
2018,01,21,09,07,37.00
2018,01,21,09,08,40.20
2018,01,21,09,09,35.40
2018,01,21,09,10,40.20
2018,01,21,09,11,32.20
2018,01,21,09,12,32.20
2018,01,21,09,13,32.20
2018,01,21,09,14,41.80
2018,01,21,09,15,32.20
2018,01,21,09,16,40.20
2018,01,21,09,17,29.00
2018,01,21,09,18,29.00
2018,01,21,09,19,29.00
2018,01,21,09,20,35.40
2018,01,21,09,21,38.60
2018,01,21,09,22,48.30
2018,01,21,09,23,48.30
2018,01,21,09,24,37.00
2018,01,21,09,25,40.20
2018,01,21,09,26,25.70
2018,01,21,09,27,33.80
2018,01,21,09,28,38.60
2018,01,21,09,29,35.40
2018,01,21,09,30,29.00
2018,01,21,09,31,33.80
2018,01,21,09,32,25.70
2018,01,21,09,33,48.30
2018,01,21,09,34,40.20
2018,01,21,09,35,24.20
2018,01,21,09,36,38.60
2018,01,21,09,37,53.10
2018,01,21,09,38,25.70
2018,01,21,09,39,37.00
2018,01,21,09,40,37.00
2018,01,21,09,41,43.50
2018,01,21,09,42,41.80
2018,01,21,09,43,30.60
2018,01,21,09,44,43.50
2018,01,21,09,45,37.00
2018,01,21,09,46,40.20
2018,01,21,09,47,24.20
2018,01,21,09,48,33.80
2018,01,21,09,49,35.40
2018,01,21,09,50,29.00
2018,01,21,09,51,32.20
2018,01,21,09,52,29.00
2018,01,21,09,53,33.80
2018,01,21,09,54,38.60
2018,01,21,09,55,46.70
2018,01,21,09,56,37.00
2018,01,21,09,57,35.40
2018,01,21,09,58,29.00
2018,01,21,09,59,38.60
2018,01,21,10,00,27.40
2018,01,21,10,01,25.70
2018,01,21,10,02,35.40
2018,01,21,10,03,35.40
2018,01,21,10,04,20.90
2018,01,21,10,05,45.10
2018,01,21,10,06,32.20
2018,01,21,10,07,22.50
2018,01,21,10,08,53.10
2018,01,21,10,09,38.60
2018,01,21,10,10,29.00
2018,01,21,10,11,33.80
2018,01,21,10,12,37.00
2018,01,21,10,13,49.90
2018,01,21,10,14,41.80
2018,01,21,10,15,57.90
2018,01,21,10,16,45.10
2018,01,21,10,17,29.00
2018,01,21,10,18,25.70
2018,01,21,10,19,30.60
2018,01,21,10,20,24.20
2018,01,21,10,21,22.50
2018,01,21,10,22,32.20
2018,01,21,10,23,33.80
2018,01,21,10,24,40.20
2018,01,21,10,25,29.00
2018,01,21,10,26,27.40
2018,01,21,10,27,22.50
2018,01,21,10,28,30.60
2018,01,21,10,29,32.20
2018,01,21,10,30,43.50
2018,01,21,10,31,33.80
2018,01,21,10,32,33.80
2018,01,21,10,33,29.00
2018,01,21,10,34,41.80
2018,01,21,10,35,29.00
2018,01,21,10,36,40.20
2018,01,21,10,37,35.40
2018,01,21,10,38,41.80
2018,01,21,10,39,32.20
2018,01,21,10,40,22.50
2018,01,21,10,41,29.00
2018,01,21,10,42,40.20
2018,01,21,10,43,41.80
2018,01,21,10,44,37.00
2018,01,21,10,45,37.00
2018,01,21,10,46,41.80
2018,01,21,10,47,37.00
2018,01,21,10,48,41.80
2018,01,21,10,49,33.80
2018,01,21,10,50,27.40
2018,01,21,10,51,45.10
2018,01,21,10,52,35.40
2018,01,21,10,53,22.50
2018,01,21,10,54,30.60
2018,01,21,10,55,35.40
2018,01,21,10,56,37.00
2018,01,21,10,57,29.00
2018,01,21,10,58,25.70
2018,01,21,10,59,32.20
2018,01,21,11,00,41.80
2018,01,21,11,01,38.60
2018,01,21,11,02,30.60
2018,01,21,11,03,41.80
2018,01,21,11,04,37.00
2018,01,21,11,05,29.00
2018,01,21,11,06,35.40
2018,01,21,11,07,30.60
2018,01,21,11,08,25.70
2018,01,21,11,09,32.20
2018,01,21,11,10,19.30
2018,01,21,11,11,41.80
2018,01,21,11,12,46.70
2018,01,21,11,13,45.10
2018,01,21,11,14,27.40
2018,01,21,11,15,46.70
2018,01,21,11,16,40.20
2018,01,21,11,17,29.00
2018,01,21,11,18,32.20
2018,01,21,11,19,32.20
2018,01,21,11,20,27.40
2018,01,21,11,21,32.20
2018,01,21,11,22,32.20
2018,01,21,11,23,20.90
2018,01,21,11,24,25.70
2018,01,21,11,25,22.50
2018,01,21,11,26,25.70
2018,01,21,11,27,19.30
2018,01,21,11,28,24.20
2018,01,21,11,29,40.20
2018,01,21,11,30,40.20
2018,01,21,11,31,30.60
2018,01,21,11,32,43.50
2018,01,21,11,33,30.60
2018,01,21,11,34,27.40
2018,01,21,11,35,32.20
2018,01,21,11,36,37.00
2018,01,21,11,37,30.60
2018,01,21,11,38,32.20
2018,01,21,11,39,30.60
2018,01,21,11,40,37.00
2018,01,21,11,41,53.10
2018,01,21,11,42,32.20
2018,01,21,11,43,35.40
2018,01,21,11,44,35.40
2018,01,21,11,45,37.00
2018,01,21,11,46,33.80
2018,01,21,11,47,33.80
2018,01,21,11,48,33.80
2018,01,21,11,49,33.80
2018,01,21,11,50,35.40
2018,01,21,11,51,24.20
2018,01,21,11,52,24.20
2018,01,21,11,53,37.00
2018,01,21,11,54,30.60
2018,01,21,11,55,24.20
2018,01,21,11,56,19.30
2018,01,21,11,57,32.20
2018,01,21,11,58,24.20
2018,01,21,11,59,20.90
2018,01,21,12,00,25.70
2018,01,21,12,01,24.20
2018,01,21,12,02,33.80
2018,01,21,12,03,29.00
2018,01,21,12,04,20.90
2018,01,21,12,05,32.20
2018,01,21,12,06,29.00
2018,01,21,12,07,29.00
2018,01,21,12,08,22.50
2018,01,21,12,09,32.20
2018,01,21,12,10,22.50
2018,01,21,12,11,29.00
2018,01,21,12,12,32.20
2018,01,21,12,13,24.20
2018,01,21,12,14,30.60
2018,01,21,12,15,25.70
2018,01,21,12,16,25.70
2018,01,21,12,17,27.40
2018,01,21,12,18,27.40
2018,01,21,12,19,24.20
2018,01,21,12,20,27.40
2018,01,21,12,21,14.50
2018,01,21,12,22,19.30
2018,01,21,12,23,27.40
2018,01,21,12,24,29.00
2018,01,21,12,25,19.30
2018,01,21,12,26,20.90
2018,01,21,12,27,25.70
2018,01,21,12,28,29.00
2018,01,21,12,29,25.70
2018,01,21,12,30,19.30
2018,01,21,12,31,17.70
2018,01,21,12,32,17.70
2018,01,21,12,33,20.90
2018,01,21,12,34,27.40
2018,01,21,12,35,30.60
2018,01,21,12,36,33.80
2018,01,21,12,37,20.90
2018,01,21,12,38,33.80
2018,01,21,12,39,37.00
2018,01,21,12,40,41.80
2018,01,21,12,41,32.20
2018,01,21,12,42,27.40
2018,01,21,12,43,25.70
2018,01,21,12,44,19.30
2018,01,21,12,45,24.20
2018,01,21,12,46,32.20
2018,01,21,12,47,33.80
2018,01,21,12,48,27.40
2018,01,21,12,49,32.20
2018,01,21,12,50,29.00
2018,01,21,12,51,32.20
2018,01,21,12,52,19.30
2018,01,21,12,53,29.00
2018,01,21,12,54,27.40
2018,01,21,12,55,29.00
2018,01,21,12,56,24.20
2018,01,21,12,57,30.60
2018,01,21,12,58,24.20
2018,01,21,12,59,30.60
2018,01,21,13,00,35.40
2018,01,21,13,01,32.20
2018,01,21,13,02,19.30
2018,01,21,13,03,35.40
2018,01,21,13,04,32.20
2018,01,21,13,05,20.90
2018,01,21,13,06,22.50
2018,01,21,13,07,20.90
2018,01,21,13,08,24.20
2018,01,21,13,09,25.70
2018,01,21,13,10,27.40
2018,01,21,13,11,20.90
2018,01,21,13,12,25.70
2018,01,21,13,13,20.90
2018,01,21,13,14,14.50
2018,01,21,13,15,20.90
2018,01,21,13,16,22.50
2018,01,21,13,17,17.70
2018,01,21,13,18,17.70
2018,01,21,13,19,27.40
2018,01,21,13,20,17.70
2018,01,21,13,21,19.30
2018,01,21,13,22,12.90
2018,01,21,13,23,12.90
2018,01,21,13,24,24.20
2018,01,21,13,25,19.30
2018,01,21,13,26,30.60
2018,01,21,13,27,22.50
2018,01,21,13,28,20.90
2018,01,21,13,29,25.70
2018,01,21,13,30,22.50
2018,01,21,13,31,25.70
2018,01,21,13,32,24.20
2018,01,21,13,33,17.70
2018,01,21,13,34,22.50
2018,01,21,13,35,12.90
2018,01,21,13,36,17.70
2018,01,21,13,37,20.90
2018,01,21,13,38,25.70
2018,01,21,13,39,14.50
2018,01,21,13,40,11.30
2018,01,21,13,41,17.70
2018,01,21,13,42,16.10
2018,01,21,13,43,24.20
2018,01,21,13,44,24.20
2018,01,21,13,45,29.00
2018,01,21,13,46,29.00
2018,01,21,13,47,22.50
2018,01,21,13,48,19.30
2018,01,21,13,49,16.10
2018,01,21,13,50,17.70
2018,01,21,13,51,9.60
2018,01,21,13,52,16.10
2018,01,21,13,53,19.30
2018,01,21,13,54,17.70
2018,01,21,13,55,19.30
2018,01,21,13,56,11.30
2018,01,21,13,57,14.50
2018,01,21,13,58,16.10
2018,01,21,13,59,17.70
2018,01,21,14,00,9.60
2018,01,21,14,01,11.30
2018,01,21,14,02,16.10
2018,01,21,14,03,16.10
2018,01,21,14,04,17.70
2018,01,21,14,05,12.90
2018,01,21,14,06,20.90
2018,01,21,14,07,14.50
2018,01,21,14,08,19.30
2018,01,21,14,09,20.90
2018,01,21,14,10,14.50
2018,01,21,14,11,17.70
2018,01,21,14,12,20.90
2018,01,21,14,13,17.70
2018,01,21,14,14,16.10
2018,01,21,14,15,16.10
2018,01,21,14,16,22.50
2018,01,21,14,17,22.50
2018,01,21,14,18,19.30
2018,01,21,14,19,17.70
2018,01,21,14,20,17.70
2018,01,21,14,21,24.20
2018,01,21,14,22,19.30
2018,01,21,14,23,25.70
2018,01,21,14,24,12.90
2018,01,21,14,25,20.90
2018,01,21,14,26,16.10
2018,01,21,14,27,11.30
2018,01,21,14,28,11.30
2018,01,21,14,29,16.10
2018,01,21,14,30,16.10
2018,01,21,14,31,14.50
2018,01,21,14,32,19.30
2018,01,21,14,33,12.90
2018,01,21,14,34,11.30
2018,01,21,14,35,11.30
2018,01,21,14,36,9.60
2018,01,21,14,37,8.10
2018,01,21,14,38,11.30
2018,01,21,14,39,16.10
2018,01,21,14,40,9.60
2018,01,21,14,41,14.50
2018,01,21,14,42,9.60
2018,01,21,14,43,25.70
2018,01,21,14,44,14.50
2018,01,21,14,45,11.30
2018,01,21,14,46,8.10
2018,01,21,14,47,6.40
2018,01,21,14,48,8.10
2018,01,21,14,49,17.70
2018,01,21,14,50,14.50
2018,01,21,14,51,8.10
2018,01,21,14,52,11.30
2018,01,21,14,53,17.70
2018,01,21,14,54,8.10
2018,01,21,14,55,9.60
2018,01,21,14,56,11.30
2018,01,21,14,57,6.40
2018,01,21,14,58,8.10
2018,01,21,14,59,12.90
2018,01,21,15,00,9.60
2018,01,21,15,01,4.80
2018,01,21,15,02,4.80
2018,01,21,15,03,6.40
2018,01,21,15,04,8.10
2018,01,21,15,05,6.40
2018,01,21,15,06,8.10
2018,01,21,15,07,6.40
2018,01,21,15,08,8.10
2018,01,21,15,09,6.40
2018,01,21,15,10,14.50
2018,01,21,15,11,12.90
2018,01,21,15,12,12.90
2018,01,21,15,13,11.30
2018,01,21,15,14,9.60
2018,01,21,15,15,8.10
2018,01,21,15,16,8.10
2018,01,21,15,17,11.30
2018,01,21,15,18,9.60
2018,01,21,15,19,11.30
2018,01,21,15,20,12.90
2018,01,21,15,21,12.90
2018,01,21,15,22,14.50
2018,01,21,15,23,11.30
2018,01,21,15,24,9.60
2018,01,21,15,25,11.30
2018,01,21,15,26,9.60
2018,01,21,15,27,11.30
2018,01,21,15,28,8.10
2018,01,21,15,29,8.10
2018,01,21,15,30,9.60
2018,01,21,15,31,8.10
2018,01,21,15,32,8.10
2018,01,21,15,33,8.10
2018,01,21,15,34,8.10
2018,01,21,15,35,14.50
2018,01,21,15,36,14.50
2018,01,21,15,37,16.10
2018,01,21,15,38,16.10
2018,01,21,15,39,16.10
2018,01,21,15,40,16.10
2018,01,21,15,41,14.50
2018,01,21,15,42,14.50
2018,01,21,15,43,12.90
2018,01,21,15,44,6.40
2018,01,21,15,45,9.60
2018,01,21,15,46,16.10
2018,01,21,15,47,16.10
2018,01,21,15,48,12.90
2018,01,21,15,49,14.50
2018,01,21,15,50,17.70
2018,01,21,15,51,17.70
2018,01,21,15,52,11.30
2018,01,21,15,53,12.90
2018,01,21,15,54,9.60
2018,01,21,15,55,14.50
2018,01,21,15,56,17.70
2018,01,21,15,57,11.30
2018,01,21,15,58,11.30
2018,01,21,15,59,12.90
2018,01,21,16,00,17.70
2018,01,21,16,01,12.90
2018,01,21,16,02,17.70
2018,01,21,16,03,14.50
2018,01,21,16,04,14.50
2018,01,21,16,05,16.10
2018,01,21,16,06,12.90
2018,01,21,16,07,14.50
2018,01,21,16,08,20.90
2018,01,21,16,09,16.10
2018,01,21,16,10,19.30
2018,01,21,16,11,16.10
2018,01,21,16,12,29.00
2018,01,21,16,13,27.40
2018,01,21,16,14,22.50
2018,01,21,16,15,11.30
2018,01,21,16,16,8.10
2018,01,21,16,17,20.90
2018,01,21,16,18,19.30
2018,01,21,16,19,19.30
2018,01,21,16,20,17.70
2018,01,21,16,21,20.90
2018,01,21,16,22,11.30
2018,01,21,16,23,20.90
2018,01,21,16,24,16.10
2018,01,21,16,25,14.50
2018,01,21,16,26,14.50
2018,01,21,16,27,12.90
2018,01,21,16,28,14.50
2018,01,21,16,29,16.10
2018,01,21,16,30,16.10
2018,01,21,16,31,11.30
2018,01,21,16,32,11.30
2018,01,21,16,33,11.30
2018,01,21,16,34,12.90
2018,01,21,16,35,14.50
2018,01,21,16,36,16.10
2018,01,21,16,37,14.50
2018,01,21,16,38,12.90
2018,01,21,16,39,17.70
2018,01,21,16,40,12.90
2018,01,21,16,41,11.30
2018,01,21,16,42,19.30
2018,01,21,16,43,12.90
2018,01,21,16,44,9.60
2018,01,21,16,45,11.30
2018,01,21,16,46,12.90
2018,01,21,16,47,16.10
2018,01,21,16,48,16.10
2018,01,21,16,49,8.10
2018,01,21,16,50,9.60
2018,01,21,16,51,12.90
2018,01,21,16,52,11.30
2018,01,21,16,53,12.90
2018,01,21,16,54,14.50
2018,01,21,16,55,14.50
2018,01,21,16,56,12.90
2018,01,21,16,57,11.30
2018,01,21,16,58,12.90
2018,01,21,16,59,12.90
2018,01,21,17,00,12.90
2018,01,21,17,01,11.30
2018,01,21,17,02,12.90
2018,01,21,17,03,11.30
2018,01,21,17,04,16.10
2018,01,21,17,05,14.50
2018,01,21,17,06,9.60
2018,01,21,17,07,11.30
2018,01,21,17,08,8.10
2018,01,21,17,09,19.30
2018,01,21,17,10,12.90
2018,01,21,17,11,11.30
2018,01,21,17,12,11.30
2018,01,21,17,13,8.10
2018,01,21,17,14,12.90
2018,01,21,17,15,14.50
2018,01,21,17,16,14.50
2018,01,21,17,17,9.60
2018,01,21,17,18,11.30
2018,01,21,17,19,14.50
2018,01,21,17,20,14.50
2018,01,21,17,21,22.50